Weather History for Boonville, MO

Change the Weather History Date:

Monday, November 18, 2013

  Actual Average Record
Temperature  
Mean Temperature 44 °F -  
Max Temperature 54 °F 54 °F 84 °F (1958)
Min Temperature 35 °F 34 °F 5 °F (1959)
Degree Days  
Heating Degree Days 20    
Moisture  
Dew Point 31 °F    
Average Humidity 61    
Maximum Humidity 94    
Minimum Humidity 33    
Precipitation  
Precipitation 0.00 in - - ()
Sea Level Pressure  
Sea Level Pressure 30.21 in    
Wind  
Wind Speed 5 mph (West)    
Max Wind Speed 12 mph    
Max Gust Speed 18 mph    
Visibility 10 miles    
Events      
Averages and records for this station are not official NWS values.
T = Trace of Precipitation, MM = Missing Value Source: NWS Daily Summary

Daily Weather History Graph

Daily Weather History Graph

Search for Another Location

Airport:

Trip Planner

Search our weather history database for the weather conditions in past years. The results will help you decide how hot, cold, wet, or windy it might be!

Date:

Astronomy

Nov. 18, 2013 Rise Set
Actual Time 6:57 AM CST 4:54 PM CST
Civil Twilight 6:28 AM CST 5:23 PM CST
Nautical Twilight 5:55 AM CST 5:55 PM CST
Astronomical Twilight 5:24 AM CST 6:27 PM CST
Moon 5:57 PM CST (11/18) 7:46 AM CST (11/18)
Length of Visible Light 10h 54m
Length of Day
9h 57m
Full, 99% of the Moon is Illuminated
Nov 18
Full
Nov 25
Last Quarter
Dec 2
New
Dec 9
First Quarter
Dec 17
Full

Hourly Weather History & Observations

Time (CST) Temp. Windchill Dew Point Humidity Pressure Visibility Wind Dir Wind Speed Gust Speed Precip Events Conditions
12:15 AM 47.7 °F - 36.5 °F 65% 30.04 in 10.0 mi West 5.8 mph - N/A   Clear
12:35 AM 47.7 °F - 36.3 °F 65% 30.04 in 10.0 mi West 4.6 mph - N/A   Clear
12:55 AM 47.1 °F - 36.1 °F 66% 30.05 in 10.0 mi WSW 3.5 mph - N/A   Clear
1:15 AM 45.7 °F 43.4 °F 36.0 °F 69% 30.04 in 10.0 mi WSW 4.6 mph - N/A   Clear
1:35 AM 44.8 °F 41.0 °F 35.6 °F 70% 30.05 in 10.0 mi West 6.9 mph - N/A   Clear
1:55 AM 44.8 °F 43.3 °F 35.6 °F 70% 30.05 in 10.0 mi West 3.5 mph - N/A   Clear
2:15 AM 44.8 °F 42.4 °F 35.1 °F 69% 30.05 in 10.0 mi WNW 4.6 mph - N/A   Clear
2:35 AM 44.2 °F 40.3 °F 34.7 °F 69% 30.06 in 10.0 mi WNW 6.9 mph - N/A   Clear
2:55 AM 44.1 °F 40.8 °F 34.7 °F 70% 30.07 in 10.0 mi WNW 5.8 mph - N/A   Clear
3:15 AM 43.5 °F 40.1 °F 34.7 °F 71% 30.07 in 10.0 mi WNW 5.8 mph - N/A   Clear
3:35 AM 43.2 °F 40.5 °F 35.1 °F 73% 30.08 in 10.0 mi WNW 4.6 mph - N/A   Clear
3:55 AM 42.8 °F 40.1 °F 34.9 °F 74% 30.08 in 10.0 mi WNW 4.6 mph - N/A   Clear
4:15 AM 42.4 °F 40.7 °F 34.7 °F 74% 30.09 in 10.0 mi West 3.5 mph - N/A   Clear
4:35 AM 41.5 °F 39.6 °F 34.9 °F 77% 30.10 in 10.0 mi West 3.5 mph - N/A   Clear
4:55 AM 41.0 °F 39.0 °F 34.9 °F 79% 30.11 in 10.0 mi West 3.5 mph - N/A   Clear
5:15 AM 40.8 °F 36.9 °F 34.7 °F 79% 30.13 in 10.0 mi WNW 5.8 mph - N/A   Clear
5:35 AM 40.1 °F 38.0 °F 34.5 °F 80% 30.13 in 10.0 mi WNW 3.5 mph - N/A   Clear
5:55 AM 39.7 °F - 34.5 °F 82% 30.13 in 10.0 mi Calm Calm - N/A   Clear
6:15 AM 39.9 °F - 34.7 °F 82% 30.14 in 10.0 mi Calm Calm - N/A   Clear
6:35 AM 39.0 °F - 34.3 °F 83% 30.15 in 10.0 mi Calm Calm - N/A   Clear
6:55 AM 36.9 °F 34.3 °F 34.0 °F 89% 30.17 in 10.0 mi SSW 3.5 mph - N/A   Clear
7:15 AM 35.4 °F 31.5 °F 33.8 °F 94% 30.18 in 10.0 mi WSW 4.6 mph - N/A   Clear
7:35 AM 36.7 °F 32.0 °F 34.7 °F 93% 30.20 in 10.0 mi WSW 5.8 mph - N/A   Clear
7:55 AM 38.3 °F 33.9 °F 35.2 °F 89% 30.22 in 10.0 mi WSW 5.8 mph - N/A   Clear
8:15 AM 40.1 °F 34.7 °F 35.4 °F 83% 30.23 in 10.0 mi WSW 8.1 mph - N/A   Clear
8:35 AM 42.1 °F 36.6 °F 34.9 °F 76% 30.25 in 10.0 mi West 9.2 mph - N/A   Clear
8:55 AM 43.3 °F 38.1 °F 34.9 °F 72% 30.25 in 10.0 mi West 9.2 mph - N/A   Clear
9:15 AM 44.6 °F 39.7 °F 34.9 °F 69% 30.26 in 10.0 mi West 9.2 mph - N/A   Clear
9:35 AM 45.9 °F 40.4 °F 34.0 °F 63% 30.27 in 10.0 mi West 11.5 mph 18.4 mph N/A   Clear
9:55 AM 46.6 °F - 33.6 °F 61% 30.28 in 10.0 mi WNW 8.1 mph 16.1 mph N/A   Clear
10:15 AM 47.1 °F - 33.1 °F 58% 30.28 in 10.0 mi West 10.4 mph 16.1 mph N/A   Clear
10:35 AM 47.8 °F - 32.2 °F 55% 30.28 in 10.0 mi West 10.4 mph 18.4 mph N/A   Clear
10:55 AM 49.1 °F - 32.4 °F 53% 30.28 in 10.0 mi West 9.2 mph - N/A   Clear
11:15 AM 49.6 °F - 31.8 °F 50% 30.28 in 10.0 mi West 10.4 mph - N/A   Clear
11:35 AM 50.2 °F - 31.8 °F 49% 30.28 in 10.0 mi WNW 8.1 mph - N/A   Clear
11:55 AM 51.1 °F - 31.5 °F 47% 30.27 in 10.0 mi NW 5.8 mph - N/A   Clear
12:15 PM 51.3 °F - 31.1 °F 46% 30.27 in 10.0 mi WNW 10.4 mph - N/A   Clear
12:35 PM 52.0 °F - 30.7 °F 44% 30.26 in 10.0 mi West 10.4 mph - N/A   Clear
12:55 PM 52.5 °F - 30.6 °F 43% 30.26 in 10.0 mi WNW 6.9 mph - N/A   Clear
1:15 PM 53.1 °F - 30.0 °F 41% 30.26 in 10.0 mi West 5.8 mph - N/A   Clear
1:35 PM 53.4 °F - 30.4 °F 41% 30.25 in 10.0 mi West 6.9 mph - N/A   Clear
1:55 PM 54.1 °F - 29.3 °F 39% 30.25 in 10.0 mi West 8.1 mph - N/A   Clear
2:15 PM 54.3 °F - 29.3 °F 38% 30.25 in 10.0 mi West 10.4 mph - N/A   Clear
2:35 PM 54.7 °F - 28.0 °F 36% 30.25 in 10.0 mi WNW 4.6 mph - N/A   Clear
2:55 PM 54.7 °F - 27.3 °F 35% 30.25 in 10.0 mi NW 5.8 mph - N/A   Clear
3:15 PM 54.7 °F - 26.4 °F 34% 30.25 in 10.0 mi NW 8.1 mph - N/A   Clear
3:35 PM 54.5 °F - 25.9 °F 33% 30.25 in 10.0 mi West 8.1 mph - N/A   Clear
3:55 PM 54.3 °F - 25.7 °F 33% 30.25 in 10.0 mi WNW 4.6 mph - N/A   Clear
4:15 PM 53.8 °F - 25.2 °F 33% 30.25 in 10.0 mi WNW 4.6 mph - N/A   Clear
4:35 PM 53.1 °F - 25.3 °F 34% 30.25 in 10.0 mi Calm Calm - N/A   Clear
4:55 PM 52.2 °F - 24.8 °F 35% 30.25 in 10.0 mi Calm Calm - N/A   Clear
5:15 PM 51.4 °F - 24.8 °F 35% 30.25 in 10.0 mi Calm Calm - N/A   Clear
5:35 PM 50.0 °F - 25.0 °F 38% 30.25 in 10.0 mi Calm Calm - N/A   Clear
5:55 PM 48.7 °F - 25.7 °F 41% 30.25 in 10.0 mi Calm Calm - N/A   Clear
6:15 PM 48.6 °F - 25.9 °F 41% 30.26 in 10.0 mi Calm Calm - N/A   Clear
6:35 PM 45.0 °F - 27.9 °F 51% 30.26 in 10.0 mi Calm Calm - N/A   Clear
6:55 PM 45.7 °F - 27.1 °F 48% 30.26 in 10.0 mi Calm Calm - N/A   Clear
7:15 PM 44.2 °F 42.7 °F 27.3 °F 51% 30.26 in 10.0 mi SSE 3.5 mph - N/A   Clear
7:35 PM 42.1 °F - 27.7 °F 57% 30.27 in 10.0 mi Calm Calm - N/A   Clear
7:55 PM 42.3 °F - 27.9 °F 57% 30.27 in 10.0 mi Calm Calm - N/A   Clear
8:15 PM 39.7 °F 37.6 °F 28.2 °F 63% 30.28 in 10.0 mi South 3.5 mph - N/A   Clear
8:35 PM 38.8 °F - 28.6 °F 67% 30.28 in 10.0 mi Calm Calm - N/A   Clear
8:55 PM 39.7 °F - 28.6 °F 64% 30.28 in 10.0 mi Calm Calm - N/A   Clear
9:15 PM 39.2 °F - 28.4 °F 65% 30.28 in 10.0 mi Calm Calm - N/A   Clear
9:35 PM 37.6 °F - 28.6 °F 70% 30.28 in 10.0 mi Calm Calm - N/A   Clear
9:55 PM 37.8 °F - 28.4 °F 69% 30.29 in 10.0 mi Calm Calm - N/A   Clear
10:15 PM 36.3 °F - 28.9 °F 75% 30.29 in 10.0 mi Calm Calm - N/A   Clear
10:35 PM 35.8 °F - 29.3 °F 77% 30.28 in 10.0 mi Calm Calm - N/A   Clear
10:55 PM 35.4 °F - 29.1 °F 78% 30.29 in 10.0 mi Calm Calm - N/A   Clear
11:15 PM 35.2 °F - 28.8 °F 77% 30.29 in 10.0 mi Calm Calm - N/A   Clear
11:35 PM 35.6 °F - 28.2 °F 75% 30.29 in 10.0 mi Calm Calm - N/A   Clear
11:55 PM 35.1 °F - 28.4 °F 77% 30.29 in 10.0 mi Calm Calm - N/A   Clear